Grand Canyon, AZ

11:41 AM MST on February 19, 2018 (GMT -0700)
Grand Canyon National Park

Weather History for KGCN - December, 2013

Change the Weather History Date:

Saturday, December 14, 2013

  Actual Average Record
Temperature  
Mean Temperature 24 °F -  
Max Temperature 39 °F 42 °F 59 °F (1988)
Min Temperature 9 °F 13 °F 1 °F (2001)
Degree Days  
Heating Degree Days 41    
Moisture  
Dew Point 11 °F    
Average Humidity 64    
Maximum Humidity 88    
Minimum Humidity 33    
Precipitation  
Precipitation 0.00 in - - ()
Sea Level Pressure  
Sea Level Pressure 30.47 in    
Wind  
Wind Speed 5 mph (NE)    
Max Wind Speed 17 mph    
Max Gust Speed 23 mph    
Visibility 10 miles    
Events      
Averages and records for this station are not official NWS values.
T = Trace of Precipitation, MM = Missing Value Source: NWS Daily Summary

Daily Weather History Graph

Daily Weather History Graph

Search for Another Location

Airport or City:

Trip Planner

Search our weather history database for the weather conditions in past years. The results will help you decide how hot, cold, wet, or windy it might be!

Date:

Astronomy

Dec. 14, 2013 Rise Set
Actual Time 7:31 AM MST 5:15 PM MST
Civil Twilight 7:02 AM MST 5:44 PM MST
Nautical Twilight 6:30 AM MST 6:16 PM MST
Astronomical Twilight 5:59 AM MST 6:47 PM MST
Moon 3:37 PM MST (12/14) 4:58 AM MST (12/14)
Length of Visible Light 10h 41m
Length of Day
9h 44m
Waxing Gibbous, 94% of the Moon is Illuminated
Dec 14
Waxing Gibbous
Dec 17
Full
Dec 25
Last Quarter
Jan 1
New
Jan 7
First Quarter

Hourly Weather History & Observations

Time (MST) Temp. Windchill Dew Point Humidity Pressure Visibility Wind Dir Wind Speed Gust Speed Precip Events Conditions
12:54 AM 12.9 °F - 10.0 °F 88% 30.29 in 10.0 mi Calm Calm - N/A   Clear
1:54 AM 12.9 °F 6.9 °F 9.0 °F 84% 30.31 in 10.0 mi NE 3.5 mph - N/A   Clear
2:54 AM 10.9 °F - 8.1 °F 88% 30.34 in 10.0 mi Calm Calm - N/A   Clear
3:54 AM 10.9 °F 4.7 °F 8.1 °F 88% 30.33 in 10.0 mi ENE 3.5 mph - N/A   Clear
4:54 AM 9.0 °F -0.9 °F 6.1 °F 88% 30.38 in 10.0 mi NE 5.8 mph - N/A   Clear
5:54 AM 10.0 °F 1.8 °F 6.1 °F 84% 30.43 in 10.0 mi NE 4.6 mph - N/A   Clear
6:54 AM 10.0 °F 1.8 °F 6.1 °F 84% 30.50 in 10.0 mi ENE 4.6 mph - N/A   Clear
7:54 AM 10.0 °F 1.8 °F 6.1 °F 84% 30.52 in 10.0 mi NE 4.6 mph - N/A   Clear
8:54 AM 30.0 °F 19.5 °F 16.0 °F 56% 30.46 in 10.0 mi NE 13.8 mph 19.6 mph N/A   Clear
9:54 AM 33.1 °F 22.2 °F 14.0 °F 46% 30.50 in 10.0 mi NE 17.3 mph 23.0 mph N/A   Clear
10:54 AM 35.1 °F 26.9 °F 14.0 °F 42% 30.51 in 10.0 mi ENE 11.5 mph 18.4 mph N/A   Clear
11:54 AM 37.0 °F 27.4 °F 14.0 °F 39% 30.49 in 10.0 mi NE 17.3 mph 23.0 mph N/A   Clear
12:54 PM 37.9 °F 29.2 °F 14.0 °F 38% 30.48 in 10.0 mi ENE 15.0 mph 20.7 mph N/A   Clear
1:54 PM 39.9 °F 32.5 °F 14.0 °F 35% 30.46 in 10.0 mi NE 12.7 mph - N/A   Clear
2:54 PM 39.0 °F 31.8 °F 14.0 °F 36% 30.47 in 10.0 mi ENE 11.5 mph - N/A   Clear
3:54 PM 37.9 °F 30.0 °F 10.9 °F 33% 30.49 in 10.0 mi NE 12.7 mph - N/A   Clear
4:54 PM 35.1 °F 29.3 °F 12.0 °F 39% 30.52 in 10.0 mi NE 6.9 mph - N/A   Clear
5:54 PM 28.9 °F 23.9 °F 12.0 °F 49% 30.54 in 10.0 mi NNE 4.6 mph - N/A   Clear
6:54 PM 24.1 °F - 12.9 °F 62% 30.56 in 10.0 mi Calm Calm - N/A   Clear
7:54 PM 25.0 °F - 12.0 °F 58% 30.57 in 10.0 mi Calm Calm - N/A   Clear
8:54 PM 19.0 °F - 12.9 °F 77% 30.52 in 10.0 mi Calm Calm - N/A   Clear
9:54 PM 18.0 °F - 12.9 °F 81% 30.51 in 10.0 mi Calm Calm - N/A   Clear
10:54 PM 15.1 °F 9.4 °F 10.9 °F 84% 30.53 in 10.0 mi East 3.5 mph - N/A   Clear
11:54 PM 14.0 °F - 10.0 °F 84% 30.52 in 10.0 mi Calm Calm - N/A   Clear